Location: *
(53.7722°S, 170.1235°W)
Time: 19:34:19
(UTC+00:00)

Daily predictions for brighter satellites

Satellite Brightness Start Highest point End
(mag) Time Altitude Azimuth Time Altitude Azimuth Time Altitude Azimuth
USA 267 4.4 14:14:43 10° ESE 14:18:41 39° ESE 14:18:41 39° ESE
ATLAS 5 CENTAUR R/B 3.8 14:50:09 30° SSE 14:50:09 30° SSE 14:53:50 10° ESE
SL-16 R/B 4.3 14:55:48 18° NE 14:55:48 18° NE 14:57:09 10° NE
ATLAS 2AS CENTAUR R/B 3.6 14:59:05 38° SSE 14:59:05 38° SSE 15:03:40 10° SE
NOSS 3-1 (A) 4.2 15:03:08 45° ENE 15:03:08 45° ENE 15:06:58 10° ENE
ADEOS Rocket 3.8 15:00:38 10° SSE 15:04:25 43° SSE 15:04:25 43° SSE
COSMOS 2455 3.4 15:15:41 53° ENE 15:15:41 53° ENE 15:21:22 10° SE
CZ-4C R/B 3.5 15:17:08 35° S 15:17:08 35° S 15:22:00 10° ESE
USA 281 3.2 15:14:56 10° SSE 15:21:30 82° E 15:21:30 82° E
SL-08 R/B 4.4 15:18:10 10° SSE 15:22:29 44° ESE 15:22:29 44° ESE
Timation 2 Rocket 4.2 15:32:37 61° N 15:33:41 72° ENE 15:40:33 10° SE
SL-16 R/B 3.8 15:30:30 10° S 15:33:39 28° S 15:33:39 28° S
Cosmos 2227 Rocket 2.3 15:37:20 73° ESE 15:37:20 73° ESE 15:42:38 10° SE
Okean O Rocket 4.1 15:33:51 10° ENE 15:37:02 20° SE 15:40:16 10° S
Cosmos 2297 Rocket 2.4 15:40:06 63° SSE 15:40:06 63° SSE 15:44:55 10° SSE
Cosmos 1190 Rocket 4.3 15:40:11 65° ENE 15:40:14 65° ENE 15:45:35 10° SSE
Cosmos 2058 Rocket 4.5 15:43:01 34° SSE 15:43:01 34° SSE 15:45:43 10° SSE
USA 308 4.1 15:47:46 43° E 15:47:46 43° E 15:50:44 10° E
Cosmos 1763 Rocket 3.7 15:49:24 66° SSE 15:49:55 71° ESE 15:55:12 10° NE
Cosmos 1092 Rocket 4.1 15:45:58 10° S 15:52:27 81° E 15:58:51 10° NNE
Cosmos 44 Rocket 4.2 15:54:53 38° SSE 15:54:53 38° SSE 15:57:59 10° SE
Cosmos 2082 4.1 15:52:14 37° N 15:54:23 62° ENE 16:00:05 10° SE
Cosmos 2026 Rocket 4.1 15:52:43 10° S 15:59:04 74° ESE 16:05:15 10° NNE
X-37B 3.7 16:01:41 12° NE 16:01:41 12° NE 16:02:06 10° NE
Cosmos 407 Rocket 3.6 16:00:47 66° S 16:00:47 66° S 16:05:26 10° SSE
Cosmos 1633 3.9 16:00:55 39° E 16:00:55 39° E 16:04:04 10° NE
CZ-4 R/B 4.5 15:59:02 10° ESE 16:00:38 12° SE 16:02:15 10° SSE
Meteor 2-10 Rocket 4.2 16:04:17 40° S 16:04:17 40° S 16:07:40 10° S
USA 267 3.3 15:57:32 10° E 16:04:07 74° SSE 16:06:01 49° WSW
Cosmos 841 Rocket 4.3 16:01:46 25° S 16:04:37 51° ESE 16:09:49 10° NE
Cosmos 676 Rocket 4.4 16:01:56 28° N 16:04:46 64° ENE 16:10:07 10° SSE
Cosmos 2082 Rocket 4.4 16:04:32 13° SSW 16:06:26 15° S 16:09:37 10° SE
Cosmos 1603 3.9 16:06:53 37° SSW 16:09:13 73° SE 16:14:59 10° NE
SL-4 R/B 3.8 16:18:33 21° N 16:18:33 21° N 16:20:24 10° NNE
Cosmos 468 Rocket 3.9 16:17:09 62° SW 16:17:57 75° WNW 16:23:12 10° NNE
Envisat 4.2 16:17:39 10° N 16:20:05 27° NNW 16:20:05 27° NNW
USA 305 2.8 16:24:01 85° SW 16:24:06 86° S 16:28:27 10° E
SL-24 R/B 4.3 16:20:19 10° SSE 16:24:51 68° E 16:28:50 10° N
AQUARIUS 4.4 16:22:27 10° NNE 16:26:58 70° ESE 16:31:21 11° S
Cosmos 2219 3.4 16:27:21 48° WSW 16:27:53 50° SW 16:33:31 10° SSE
Cosmos 2263 Rocket 3.4 16:22:40 10° N 16:28:02 42° ENE 16:33:24 10° SE
Radarsat Rocket 4.5 16:20:40 10° NNE 16:28:38 89° WNW 16:35:41 10° SSW
Cosmos 540 Rocket 3.5 16:26:19 27° SSW 16:29:14 81° ESE 16:34:28 10° NNE
Cosmos 1954 Rocket 3.9 16:26:41 27° NNW 16:29:41 86° WSW 16:35:05 10° SSE
Meteor 2-1 Rocket 4.1 16:24:32 10° NNW 16:30:07 84° WSW 16:35:52 10° SSE
USA 229 DEB 3.9 16:30:10 41° W 16:31:14 45° WNW 16:37:19 10° NNE
USA 229 3.9 16:30:14 41° W 16:31:21 45° WNW 16:37:25 10° NNE
NOAA 6 3.9 16:27:41 10° N 16:32:55 76° WNW 16:38:07 10° SSW
ATLAS 5 CENTAUR R/B 2.7 16:31:42 29° SW 16:34:36 53° SSE 16:39:40 10° ENE
MOS 1-B 4.3 16:29:15 10° NNE 16:35:05 89° WNW 16:41:01 10° SSW
SL-16 R/B 3.7 16:37:46 19° NW 16:37:46 19° NW 16:39:52 10° NNW
Cosmos 1939 Rocket 3.5 16:31:23 10° NNE 16:35:19 57° ESE 16:39:23 10° S
Cosmos 1943 3.1 16:35:30 29° SW 16:38:34 80° WNW 16:44:15 10° NNE
ERBS 2.5 16:42:07 62° SSE 16:42:07 62° SSE 16:45:14 10° ESE
Cosmos 1812 Rocket 3.8 16:37:41 10° N 16:42:04 71° E 16:46:32 10° SSE
SMAP 3.0 16:38:27 10° NNE 16:43:11 78° WNW 16:47:46 11° SSW
Meteor 1-4 Rocket 4.3 16:40:19 10° NNE 16:43:33 33° E 16:46:47 10° SSE
USA 306 2.8 16:42:56 57° W 16:43:49 86° S 16:48:11 10° E
Cosmos 1809 Rocket 4.5 16:37:44 10° S 16:44:00 85° ESE 16:50:10 10° NNE
H-2A R/B 4.5 16:41:13 10° SE 16:44:46 25° E 16:48:19 10° NNE
Aureole 2 Rocket 4.4 16:49:33 13° SSE 16:49:33 13° SSE 16:49:55 10° SSE
Cosmos 1140 Rocket 3.9 16:47:21 39° WSW 16:48:05 41° SW 16:53:05 10° SSE
Cosmos 2208 Rocket 4.4 16:43:39 14° SSW 16:48:16 64° ESE 16:53:27 10° NE
ATLAS 2AS CENTAUR R/B 3.5 16:46:31 24° SW 16:49:32 36° S 16:55:45 10° ESE
CZ-4B R/B 3.2 16:44:58 10° NNE 16:50:33 86° ESE 16:56:05 10° SSW
Landsat 5 4.5 16:46:58 10° SSE 16:51:26 53° E 16:55:55 10° N
NOSS 3-1 (A) 4.0 16:50:37 32° W 16:51:32 34° WNW 16:56:30 10° N
ADEOS Rocket 3.9 16:46:55 10° S 16:51:22 26° SW 16:51:22 26° SW
Cosmos 1766 Rocket 4.4 16:48:45 10° S 16:53:09 51° ESE 16:57:28 10° NNE
Cosmos 1850 Rocket 4.3 16:50:40 10° NNW 16:55:54 68° ENE 17:01:10 10° SSE
Cosmos 921 Rocket 3.1 16:52:47 17° SSW 16:56:17 81° ESE 17:00:50 10° NNE
NOAA 11 4.2 16:53:04 10° N 16:58:28 56° W 17:03:54 10° SSW
CREW DRAGON DEMO-1 DEB 3.0 16:58:51 52° N 16:58:51 52° N 17:01:24 10° ENE
Cosmos 2034 Rocket 4.4 16:56:46 21° WNW 17:00:18 37° WSW 17:06:05 10° S
SL-08 R/B 4.1 16:56:12 10° S 17:00:42 34° WSW 17:01:26 32° W
COSMOS 2455 3.2 16:58:51 29° W 17:01:34 47° SW 17:07:27 10° SE
PAYLOAD B 4.3 16:58:06 10° N 17:03:41 60° WNW 17:09:20 10° SSW
ASTEX 1 3.9 16:59:21 10° S 17:03:56 37° WSW 17:08:30 10° NW
Spot 2 4.2 16:59:55 10° NNE 17:04:32 76° WNW 17:09:31 10° SSW
USA 281 3.9 16:59:49 10° SSE 17:05:38 34° SW 17:08:22 24° W
H-2A R/B 2.4 17:01:38 10° NNE 17:05:52 86° WNW 17:10:00 10° SSW
CZ-4C R/B 3.0 17:02:20 19° SW 17:06:32 45° SSE 17:11:37 10° E
Cosmos 1634 Rocket 4.0 17:01:20 10° NNW 17:07:38 62° WSW 17:14:02 10° S
Cosmos 1814 Rocket 4.0 17:03:00 13° SSW 17:07:49 83° WNW 17:13:11 10° NNE
Cosmos 1741 Rocket 4.2 17:02:33 10° NNW 17:07:53 79° ENE 17:13:19 10° SSE
Cosmos 1869 4.5 17:05:41 10° NNE 17:09:40 48° E 17:13:44 10° SSE
Cosmos 839 Rocket 4.3 17:04:23 10° NNW 17:10:32 70° NE 17:16:55 10° SE
YAOGAN 1 4.0 17:07:06 10° NE 17:11:10 38° ESE 17:15:16 10° S
USA 307 2.9 17:10:33 32° W 17:12:34 90° NNW 17:16:56 10° E
Okean O Rocket 1.5 17:08:29 10° N 17:12:55 74° WNW 17:17:26 10° SSW
H-2A R/B 2.7 17:08:53 10° NNE 17:14:16 61° ESE 17:19:35 10° S
Cosmos 1076 Rocket 4.4 17:15:44 27° WSW 17:16:27 29° W 17:20:15 10° NNW
Cosmos 2227 4.3 17:11:56 10° NNW 17:17:37 79° ENE 17:23:23 10° SE
SL-16 R/B 4.3 17:15:43 10° S 17:18:25 13° SW 17:18:44 13° SW
Cosmos 1570 Rocket 4.0 17:13:21 12° SSW 17:18:27 70° WNW 17:23:49 10° NNE
Cosmos 2058 Rocket 4.4 17:20:21 21° SW 17:20:21 21° SW 17:23:11 10° SSW
Meteor 2-21 Rocket 4.4 17:14:21 10° SSW 17:20:38 81° W 17:26:47 10° N
Cosmos 2227 Rocket 3.1 17:19:11 23° WSW 17:21:33 30° SW 17:26:37 10° SSE
Cosmos 2151 3.4 17:18:54 11° SSW 17:22:43 39° W 17:26:46 10° NNW
Cosmos-2242 3.0 17:18:32 10° NNW 17:22:59 81° W 17:27:32 10° S
Cosmos 2297 Rocket 3.3 17:21:57 21° WSW 17:24:02 26° SW 17:28:48 10° SSE
Gbstr 26 Del rocket 3.3 17:23:09 17° WNW 17:25:59 54° NNE 17:30:07 10° E
USA 308 2.9 17:23:53 24° W 17:26:25 86° NNW 17:30:46 10° ENE
Cosmos 1655 Rocket 4.0 17:21:42 10° SSW 17:28:12 73° W 17:34:36 10° N
CZ-2D R/B 3.2 17:25:11 10° N 17:29:06 69° WNW 17:33:04 10° SSW
Cosmos 1408 Rocket 4.1 17:25:06 10° S 17:29:32 61° ESE 17:33:53 10° NNE
Okean-O 3.7 17:26:00 10° NE 17:30:18 47° ESE 17:34:39 10° S
ARGOS 3.8 17:27:39 10° NNE 17:33:02 61° ESE 17:38:29 10° S
CZ-4 R/B 1.9 17:30:45 10° NNE 17:34:49 65° ESE 17:39:03 10° S
Cosmos 1633 3.9 17:35:04 21° W 17:35:05 21° W 17:37:54 10° NW
MOS 1 Rocket 3.7 17:30:09 10° S 17:35:34 63° WSW 17:41:00 10° NNW
X-37B 3.2 17:34:07 10° NW 17:35:41 13° NNW 17:37:15 10° NNE
CZ-2C R/B 3.2 17:30:38 10° N 17:35:56 53° W 17:41:01 10° SSW
SKYMED 2 4.0 17:31:43 10° SSE 17:36:10 70° ENE 17:40:33 10° N
Cosmos 2082 4.3 17:34:11 13° WNW 17:38:51 36° SW 17:44:11 10° SSE
IRIDIUM 104 4.4 17:37:15 10° N 17:42:33 87° W 17:47:54 10° S
CZ-2C R/B 4.3 17:38:27 10° SSE 17:43:31 37° E 17:48:26 10° NNE
Cosmos 841 Rocket 4.2 17:41:53 11° SW 17:46:20 33° WNW 17:51:03 10° NNW
USA 267 3.4 17:40:39 10° NE 17:47:14 70° NNW 17:53:21 12° WSW
Meteor 2-3 Rocket 4.3 17:42:35 10° SSW 17:47:59 39° W 17:53:21 10° NNW
CZ-4B R/B 2.7 17:44:46 10° SSE 17:48:03 46° E 17:51:21 10° N
GEOS 3 Rocket 3.6 17:43:47 10° NE 17:48:52 81° NW 17:53:58 10° SW
Cosmos 2221 3.6 17:45:52 10° N 17:50:05 51° E 17:54:21 10° SSE
Cosmos 2279 Rocket 4.2 17:45:08 10° NW 17:51:11 48° WSW 17:57:18 10° S
IRIDIUM 114 4.3 17:46:26 10° N 17:51:43 75° W 17:57:04 10° S
Cosmos 2082 Rocket 3.9 17:47:49 10° SSW 17:52:40 26° SE 17:57:29 10° E
SL-08 RB Rocket 4.3 17:48:24 10° NNE 17:53:01 61° ESE 17:57:43 10° S
Aureole 3 4.3 17:51:19 10° NW 17:54:51 30° WSW 17:59:12 10° S
SL-19 R/B 3.6 17:55:43 10° NNE 17:58:39 78° WNW 18:01:55 10° SSW
IRIDIUM 103 4.4 17:55:38 10° NNW 18:00:52 64° W 18:06:11 10° S
Resurs 01 Rocket 4.2 18:01:15 10° E 18:03:53 16° SE 18:06:32 10° SSE
USA 305 3.1 18:00:06 12° WSW 18:04:04 68° NNW 18:08:22 10° ENE
Aureole 3 Rocket 3.8 18:00:38 10° N 18:04:54 71° E 18:10:59 10° SSE
Cosmos 1743 Rocket 3.8 18:03:19 10° S 18:07:54 79° ESE 18:12:24 10° NNE
Meteor 1-27 4.3 18:02:59 10° NNW 18:08:30 55° WSW 18:14:06 10° S
Cosmos 2266 Rocket 4.4 18:03:16 10° SSW 18:09:16 45° W 18:15:20 10° NNW
CZ-4C R/B 4.0 18:06:33 10° S 18:09:39 27° WSW 18:12:40 10° WNW
HJ-1C 3.3 18:06:40 10° NNE 18:10:01 86° WNW 18:13:25 10° SSW
Cosmos 1939 Rocket 4.3 18:07:44 10° NW 18:10:37 19° W 18:13:34 10° SW
Cosmos 2263 Rocket 2.5 18:06:26 10° WNW 18:11:58 48° SW 18:17:31 10° SSE
Cosmos 1844 Rocket 3.5 18:07:26 10° NNW 18:13:01 59° ENE 18:18:38 10° SE
COSMOS 2406 4.1 18:09:16 10° SSW 18:14:56 47° SE 18:20:32 10° ENE
Cosmos 1500 Rocket 3.6 18:12:05 10° SSW 18:16:37 86° W 18:21:08 10° N
ERBS 2.8 18:14:58 10° WSW 18:18:17 47° S 18:21:34 10° E
Meteor 1-4 Rocket 3.6 18:15:40 10° WNW 18:18:37 24° WSW 18:21:35 10° S
Meteor 2-8 Rocket 4.5 18:12:30 10° NNW 18:18:41 74° WSW 18:24:58 10° S
ATLAS 5 CENTAUR R/B 2.4 18:13:45 10° SW 18:19:22 50° NW 18:24:02 10° NNE
Geosat 4.1 18:15:16 10° NNE 18:20:18 67° WNW 18:25:24 10° SW
H-2A R/B 2.3 18:16:50 10° S 18:20:56 48° WSW 18:25:06 10° NW
Cosmos 1606 3.6 18:17:51 10° N 18:21:42 57° E 18:25:34 10° SSE
USA 290 2.5 18:18:41 10° SW 18:21:58 52° WNW 18:25:12 10° N
USA 306 3.3 18:19:27 10° WSW 18:23:44 58° NNW 18:27:59 10° NE
CSL-04 Debris 4.3 18:18:14 10° NNE 18:23:46 87° WNW 18:29:24 10° SSW
COSMO-SKYMED 1 2.9 18:19:54 10° S 18:24:09 46° WSW 18:28:22 10° NW
OBJECT-B 2.4 18:21:14 10° NE 18:24:14 35° ESE 18:27:18 10° S
